一网星座-0246星 (ONEWEB-0246 )

导读 | 星芒AI

ONEWEB-0246 是 OneWeb 卫星星座计划中的一颗低轨通信卫星,旨在为全球提供高速互联网服务。该卫星采用标准化设计,具备高容量通信能力,支持偏远和农村地区的网络接入。作为 OneWeb 低轨卫星网络的一部分,它运行在约 1200 公里的轨道高度,与其他卫星协同工作,构建全球覆盖的宽带通信系统。ONEWEB-0246 的发射和部署有助于增强 OneWeb 在全球卫星互联网市场的竞争力,并推动数字包容性发展。

基本信息
目录编号:
48786
目录名称:
ONEWEB-0246
国际标识:
2021-045V
轨道中心:
EARTH
卫星名称:
一网星座-0246星
卫星全名:
一网星座-0246星 (ONEWEB-0246 )
卫星状态:
在轨 (已飞行1662 天)
发射日期:
2021-05-28 UTC
国别 :
英国 (GB)
星等 :
--
轨道信息
数据来源 国际轨道数据
星历时间: 2025-12-15T05:22:20+0800
21小时前
查看轨道信息
半长轴: 7579.903km
偏心率: 0.0001987
轨道倾角: 87.900°
近地点辐角 78.425°
升交点赤经 295.951°
平近点角 281.710°
近地点: 1200.261km
远地点: 1203.275km
周期: 109.460分钟
每日圈数: 13.155498
详细信息
平衡模式:
三轴稳定
覆盖范围:
全球
运营商:
一网卫星公司
运营商所在国:
英国
制造商(研发单位):
一网卫星公司
制造商所在国:
英国
使用方式:
暂无
卫星简介
OneWeb卫星网络由648颗重约125公斤的微型卫星组成,运行在1200公里的轨道上。 每颗卫星都能够提供至少每秒8千兆位的吞吐量,以使用其高吞吐量的Ku频段有效载荷为家庭和移动平台提供互联网接入。该卫星仍在工作。
2D轨道图
3D轨道图
轨道高度分析图
轨道倾角分析图
轨道综合分析图
查看轨道综合分析图